This is the latest recevied weather packets stored in our database for station/object DW9280. If no packets are shown the sender has not sent any weather packets the latest 10 day(s).
| Time | Temp. | Humidity | Pressure | Rain* | Wind** | Luminosity | Snow |
|---|---|---|---|---|---|---|---|
| 1777634907 | 23.33° C | 30% | 1024 hPa | 0 mm | - | 796 W/m² | - |
| 1777634606 | 22.78° C | 31% | 1024 hPa | 0 mm | - | 796 W/m² | - |
| 1777634303 | 22.78° C | 31% | 1024.2 hPa | 0 mm | - | 795 W/m² | - |
| 1777634004 | 22.78° C | 29% | 1024.3 hPa | 0 mm | - | 795 W/m² | - |
| 1777633701 | 22.78° C | 30% | 1024.3 hPa | 0 mm | - | 795 W/m² | - |
| 1777633397 | 22.22° C | 31% | 1024.3 hPa | 0 mm | - | 791 W/m² | - |
| 1777633095 | 22.22° C | 31% | 1024.4 hPa | 0 mm | - | 788 W/m² | - |
| 1777632795 | 21.67° C | 31% | 1024.4 hPa | 0 mm | - | 788 W/m² | - |
| 1777632489 | 21.67° C | 33% | 1024.5 hPa | 0 mm | - | 786 W/m² | - |
| 1777632189 | 21.67° C | 33% | 1024.6 hPa | 0 mm | - | 780 W/m² | - |
| 1777631885 | 21.67° C | 33% | 1024.7 hPa | 0 mm | - | 777 W/m² | - |
| 1777631583 | 21.11° C | 35% | 1024.7 hPa | 0 mm | - | 773 W/m² | - |
| 1777631285 | 21.11° C | 34% | 1024.7 hPa | 0 mm | - | 772 W/m² | - |
| 1777630983 | 21.11° C | 34% | 1024.8 hPa | 0 mm | - | 768 W/m² | - |
| 1777630683 | 21.11° C | 34% | 1024.8 hPa | 0 mm | - | 765 W/m² | - |
| 1777630382 | 20.56° C | 35% | 1024.8 hPa | 0 mm | - | 759 W/m² | - |
| 1777630086 | 20.56° C | 34% | 1024.9 hPa | 0 mm | - | 754 W/m² | - |
| 1777629783 | 20.56° C | 34% | 1025 hPa | 0 mm | - | 747 W/m² | - |
| 1777629484 | 20.56° C | 35% | 1025 hPa | 0 mm | - | 742 W/m² | - |
| 1777629185 | 20° C | 35% | 1025.1 hPa | 0 mm | - | 735 W/m² | - |
| 1777628884 | 20.56° C | 35% | 1025.2 hPa | 0 mm | - | 731 W/m² | - |
| 1777628582 | 20° C | 36% | 1025.1 hPa | 0 mm | - | 726 W/m² | - |
| 1777628283 | 20° C | 36% | 1025.2 hPa | 0 mm | - | 719 W/m² | - |
| 1777627985 | 19.44° C | 36% | 1025.3 hPa | 0 mm | - | 714 W/m² | - |
| 1777627684 | 19.44° C | 35% | 1025.3 hPa | 0 mm | - | 703 W/m² | - |
* Rain latest hour (hover to see other rain measurements)
** Current wind speed in m/s (hover to see current wind gust speed)